Weather Roundup
Issued by NWS Chicago, IL

Home | Current Version | Previous Version | Graphics & Text | Print | Product List | Glossary On
Versions: 1 2 3 4 5 6 7 8 9 10 11 12 13 14 15 16 17 18 19 20 21 22 23 24 25 26 27 28 29 30 31 32 33 34 35 36 37 38 39 40 41 42 43 44 45 46 47 48 49 50
000
NZUS59 KLOT 102006
HRRLOT

CHICAGO AREA WEATHER ROUNDUP
NATIONAL WEATHER SERVICE CHICAGO/ROMEOVILLE IL
300 PM CDT THU JUL 10 2014

NOTE: "FAIR" INDICATES FEW OR NO CLOUDS BELOW 12,000 FEET WITH NO
SIGNIFICANT WEATHER AND/OR OBSTRUCTIONS TO VISIBILITY.

* THESE STATIONS ARE NOT UNDER NWS QUALITY CONTROL. THEY ALSO MAY NOT
  REPORT WEATHER SUCH AS PRECIPITATION OR FOG.

ILZ005-006-012>014-019>023-102100-
NORTHEAST ILLINOIS

CITY           SKY/WX    TMP DP  RH WIND       PRES   REMARKS
OHARE          MOSUNNY   77  54  44 E8        30.15F
MIDWAY         MOSUNNY   77  55  46 NE14      30.16F
AURORA         MOSUNNY   78  53  41 VRB5      30.15F
LANSING*       SUNNY     76  51  41 NE8       30.16F
JOLIET*        MOSUNNY   78  50  37 N3        30.15F
WAUKEGAN       SUNNY     71  58  63 E10       30.17F
DUPAGE AIRPORT MOSUNNY   79  53  40 NE7       30.15F
WHEELING       SUNNY     76  56  49 NE12      30.17F
KANKAKEE*      MOSUNNY   77  56  48 N3        30.15F
MORRIS*        SUNNY     79  55  43 CALM      30.14F
LEWIS AIRPORT* MOSUNNY   77  52  41 CALM      30.15S
NORTHERLY IS     N/A     70  61  73 E9          N/A
$$

WIZ051-052-058>065-066-070>072-102100-
SOUTHEAST WISCONSIN

CITY           SKY/WX    TMP DP  RH WIND       PRES   REMARKS
MILWAUKEE      MOSUNNY   69  56  62 SE14      30.17F
KENOSHA*       SUNNY     72  58  61 E13       30.18F
RACINE*        SUNNY     70  56  61 SE12      30.19F
BURLINGTON     PTSUNNY   74  58  57 E8        30.16S
WAUKESHA       PTSUNNY   73  57  56 SE10      30.16F
WEST BEND      MOSUNNY   72  55  56 SE9       30.16F
$$

INZ001>003-010>013-019-020-102100-
NORTHWEST INDIANA

CITY           SKY/WX    TMP DP  RH WIND       PRES   REMARKS
GARY*          MOSUNNY   75  55  50 E14       30.17F
MICHIGAN CITY* NOT AVBL
RENSSELAER*    NOT AVBL
VALPARAISO     SUNNY     76  52  43 NE8       30.18F
$$

LMZ740>746-102100-
SOUTHERN LAKE MICHIGAN

STATION/POSITION TIME  SKY/WX   TEMP WIND        PRES    VSBY
                                AIR  DIR/SP/G
                 (UTC)          (F)  (DEG/KT/KT) (MB)    (MI)
HARRISON CRIB    2000            66   90/ 14/ 15   N/A
BURNHAM HARBOR   2000            69   90/ 10       N/A
CALUMET HARBOR   2000            68   60/ 10/ 12 1022.4F
BURNS HARBOR     NOT AVBL
MICHIGAN CITY    2000            68   10/  8/  9   N/A
$$

ABBREVIATIONS USED IN REMARKS
   TC - TEMPERATURE IN CELSIUS
  WCI - WIND CHILL INDEX
   HX - HEAT INDEX
  VSB - VISIBILITY
$$


USA.gov is the U.S. government's official web portal to all federal, state and local government web resources and services.